Waarnemingen

Advertentie
Mijn weer
Nordkoster, Zweden (2500): temperatuur & dauwpunt: 14.10.2020 19:00:00 - 20.10.2020 19:00:00 (CEST)Nordkoster, Zweden (2500): windsnelheid & windstoten: 14.10.2020 19:00:00 - 20.10.2020 19:00:00 (CEST)Nordkoster, Zweden (2500): windrichting: 14.10.2020 19:00:00 - 20.10.2020 19:00:00 (CEST)Nordkoster, Zweden (2500): luchtdruk: 14.10.2020 19:00:00 - 20.10.2020 19:00:00 (CEST)Nordkoster, Zweden (2500): zicht: 14.10.2020 19:00:00 - 20.10.2020 19:00:00 (CEST)Nordkoster, Zweden (2500): neerslag: 14.10.2020 19:00:00 - 20.10.2020 19:00:00 (CEST)
Datum & Tijd tt [°C] td [°C] ff [km/u] ff [kn] fx [km/u] fx [kn] dd ppp [hPa] vv [km] rr [mm]
20.10.2020 19:00:00 9,6 6,9 33 18 45 25 Z 1005,2 15 0,4
20.10.2020 18:00:00 9,1 7,1 32 17 58 32 Z 1006,3 13 1,0
20.10.2020 17:00:00 9,0 7,1 41 22 53 29 Z 1006,8 7 0,9
20.10.2020 16:00:00 9,1 7,4 32 17 53 28 Z 1007,8 8 0,8
20.10.2020 15:00:00 9,2 6,5 36 19 58 32 ZZW 1008,6 9 1,4
20.10.2020 14:00:00 9,4 8,0 41 22 61 33 ZZW 1009,0 3,6 3,5
20.10.2020 13:00:00 9,7 8,3 33 18 49 26 ZZW 1009,6 6 0,9
20.10.2020 12:00:00 10,3 7,2 39 21 56 30 Z 1009,9 14 0,0
20.10.2020 11:00:00 10,5 7,2 35 19 50 27 Z 1010,0 21 0,0
20.10.2020 10:00:00 10,0 7,6 34 18 49 27 Z 1010,5 15 0,0
20.10.2020 09:00:00 7,9 7,5 26 14 42 23 ZZO 1011,1 12 1,1
20.10.2020 08:00:00 7,4 7,1 30 16 44 24 ZO 1011,3 10 1,7
20.10.2020 07:00:00 5,8 5,4 27 14 42 23 ZO 1012,0 11 0,9
20.10.2020 06:00:00 4,9 4,0 32 18 46 25 OZO 1012,5 18 0,3
20.10.2020 05:00:00 4,5 3,5 29 16 44 24 OZO 1013,1 12 0,5
20.10.2020 04:00:00 4,1 2,6 27 14 40 21 O 1014,2 11 0,3
20.10.2020 03:00:00 4,4 2,3 21 12 32 17 O 1015,4 35 0,9
20.10.2020 02:00:00 5,1 1,2 18 10 26 14 OZO 1016,1 19 0,0
20.10.2020 01:00:00 5,9 -1,0 19 10 26 14 O 1016,4 48 0,0
20.10.2020 00:00:00 5,8 -0,5 13 7 20 11 OZO 1016,5 50 0,0
19.10.2020 23:00:00 5,5 0,3 10 5 12 7 O 1016,7 50 0,0
19.10.2020 22:00:00 6,3 0,0 11 6 13 7 OZO 1016,6 50 0,0
19.10.2020 21:00:00 6,4 -1,3 11 6 16 9 OZO 1016,6 50 0,0
19.10.2020 20:00:00 5,8 -0,5 8 4 13 7 O 1016,8 50 0,0
19.10.2020 19:00:00 6,0 -0,7 9 5 12 7 O 1016,4 5 0,0
19.10.2020 18:00:00 7,0 -5,4 5 3 6 3 O 1016,1 16 0,0
19.10.2020 17:00:00 7,1 -4,3 0 0 8 4 N 1016,2 50 0,0
19.10.2020 16:00:00 7,6 -5,1 3 2 11 6 O 1016,1 50 0,0
19.10.2020 15:00:00 7,8 -3,7 7 4 11 6 O 1015,9 40 0,0
19.10.2020 14:00:00 7,6 -3,3 6 3 10 6 NO 1016,1 42 0,0
19.10.2020 13:00:00 7,6 -2,2 5 3 12 6 NO 1016,0 38 0,0
19.10.2020 12:00:00 8,0 -5,1 4 2 8 4 O 1015,6 46 0,0
19.10.2020 11:00:00 - - - - 8 5 - - - -
19.10.2020 10:00:00 - - - - 8 4 - - - -
19.10.2020 09:00:00 3,9 2,1 6 3 9 5 O 1014,5 50 0,0
19.10.2020 08:00:00 4,8 1,6 3 2 5 3 O 1014,0 50 0,0
19.10.2020 07:00:00 6,0 -1,0 3 2 8 5 O 1013,7 50 0,0
19.10.2020 06:00:00 5,2 0,2 4 2 9 5 NNO 1013,7 50 0,0
19.10.2020 05:00:00 5,4 -1,1 6 3 16 8 O 1013,7 50 0,0
19.10.2020 04:00:00 6,2 -2,2 8 5 21 12 NNO 1013,3 50 0,0
19.10.2020 03:00:00 6,5 -3,7 12 6 20 11 N 1013,3 50 0,0
19.10.2020 02:00:00 7,1 -3,2 17 9 28 15 N 1013,0 50 0,0
19.10.2020 01:00:00 7,2 -3,4 19 10 36 19 N 1012,8 50 0,0
19.10.2020 00:00:00 7,3 -3,0 20 11 39 21 N 1012,5 50 0,0
18.10.2020 23:00:00 7,8 -2,3 20 11 37 20 N 1012,3 50 0,0
18.10.2020 22:00:00 7,9 -2,4 25 13 40 21 NNW 1012,2 50 0,0
18.10.2020 21:00:00 8,4 -2,6 27 15 39 21 NW 1011,9 50 0,0
18.10.2020 20:00:00 8,9 -3,0 29 15 41 22 WNW 1011,7 50 0,0
18.10.2020 19:00:00 9,4 -3,5 29 16 41 22 WNW 1011,3 50 0,0
18.10.2020 18:00:00 9,6 -2,7 27 15 38 21 WNW 1010,9 50 0,0
18.10.2020 17:00:00 10,0 -5,5 21 11 42 23 NW 1010,7 50 0,0
18.10.2020 16:00:00 10,1 -4,7 22 12 40 22 NW 1010,9 38 0,0
18.10.2020 15:00:00 9,7 -5,8 26 14 40 22 NW 1010,8 42 0,0
18.10.2020 14:00:00 9,5 -4,5 24 13 40 22 NW 1011,1 35 0,0
18.10.2020 13:00:00 9,0 -4,2 27 14 47 25 NW 1011,3 47 0,0
18.10.2020 12:00:00 8,4 -3,5 29 16 47 26 NW 1011,4 44 0,0
18.10.2020 11:00:00 7,8 -2,8 32 17 50 27 NW 1011,3 37 0,0
18.10.2020 10:00:00 7,4 -3,2 34 19 54 29 NNW 1011,2 49 0,0
18.10.2020 09:00:00 7,3 -2,7 32 17 55 30 NNW 1010,9 48 0,0
18.10.2020 08:00:00 7,1 -2,4 31 17 47 25 NW 1010,5 50 0,0
18.10.2020 07:00:00 7,1 -2,1 27 15 39 21 NW 1010,3 50 0,0
18.10.2020 06:00:00 7,1 -1,1 23 12 38 20 NW 1010,3 50 0,0
18.10.2020 05:00:00 7,1 -1,1 20 11 34 19 NNW 1010,5 50 0,0
18.10.2020 04:00:00 7,2 -1,0 17 9 29 16 N 1010,6 50 0,0
18.10.2020 03:00:00 7,1 -1,8 19 10 31 17 N 1010,7 50 0,0
18.10.2020 02:00:00 7,3 -2,7 16 9 32 17 N 1010,7 50 0,0
18.10.2020 01:00:00 7,9 -1,4 19 11 37 20 N 1010,6 50 0,0
18.10.2020 00:00:00 8,5 -1,3 27 15 41 22 N 1010,1 50 0,0
17.10.2020 23:00:00 8,2 2,2 23 12 38 21 N 1010,0 50 0,0
17.10.2020 22:00:00 8,5 3,3 22 12 35 19 N 1009,9 50 0,0
17.10.2020 21:00:00 - - - - 27 15 - - - -
17.10.2020 20:00:00 8,9 6,5 11 6 19 10 NW 1010,1 50 0,0
17.10.2020 19:00:00 9,2 5,4 6 3 11 6 W 1010,0 50 0,0
17.10.2020 18:00:00 9,5 6,2 9 5 15 8 W 1010,6 50 0,0
17.10.2020 17:00:00 10,3 6,3 10 6 17 9 W 1011,2 50 0,0
17.10.2020 16:00:00 10,5 6,3 13 7 23 12 WZW 1012,0 49 0,0
17.10.2020 15:00:00 10,8 6,4 16 9 29 16 WZW 1013,1 36 0,0
17.10.2020 14:00:00 11,4 6,3 20 11 42 23 ZW 1013,9 23 0,0
17.10.2020 13:00:00 11,5 6,6 33 18 45 24 ZW 1014,7 30 0,0
17.10.2020 12:00:00 11,5 6,6 27 15 41 22 ZW 1016,1 39 0,0
17.10.2020 11:00:00 11,0 6,1 27 15 40 22 ZW 1016,9 50 0,0
17.10.2020 10:00:00 10,8 5,5 26 14 39 21 ZW 1017,7 41 0,0
17.10.2020 09:00:00 10,2 5,2 24 13 36 20 ZW 1018,5 50 0,0
17.10.2020 08:00:00 9,8 5,4 18 10 30 16 WZW 1019,3 50 0,0
17.10.2020 07:00:00 9,7 5,3 20 11 29 16 WZW 1019,9 50 0,0
17.10.2020 06:00:00 9,3 5,8 18 10 26 14 WZW 1020,8 50 0,0
17.10.2020 05:00:00 9,1 5,7 13 7 18 10 WZW 1021,7 50 0,0
17.10.2020 04:00:00 6,1 5,2 8 4 9 5 Z 1022,5 50 0,0
17.10.2020 03:00:00 7,3 5,4 6 3 7 4 ZZO 1023,5 50 0,0
17.10.2020 02:00:00 7,7 5,5 0 0 10 5 N 1024,2 50 0,0
17.10.2020 01:00:00 6,9 5,2 11 6 13 7 Z 1024,7 50 0,0
17.10.2020 00:00:00 7,0 5,0 7 4 8 5 ZO 1025,2 50 0,0
16.10.2020 23:00:00 - - - - 8 4 - - - -
16.10.2020 22:00:00 9,0 4,2 5 3 6 3 ONO 1025,4 50 0,0
16.10.2020 21:00:00 9,3 3,7 5 3 9 5 ONO 1025,5 50 0,0
16.10.2020 20:00:00 9,7 3,7 6 4 12 7 NO 1025,6 50 0,0
16.10.2020 19:00:00 10,1 2,7 9 5 20 11 NNO 1025,5 50 0,0
16.10.2020 18:00:00 10,4 3,2 13 7 27 14 N 1025,2 50 0,0
16.10.2020 17:00:00 11,0 3,1 14 8 27 14 NNO 1025,2 50 0,0
16.10.2020 16:00:00 11,5 2,5 18 10 26 14 NO 1025,5 41 0,0
16.10.2020 15:00:00 11,3 2,3 14 8 23 13 NNO 1025,6 50 0,0
16.10.2020 14:00:00 11,0 2,8 10 5 23 12 NO 1025,9 41 0,0
16.10.2020 13:00:00 10,6 2,4 14 8 26 14 NO 1026,3 41 0,0
16.10.2020 12:00:00 9,9 2,7 16 8 29 15 NO 1026,1 46 0,0
16.10.2020 11:00:00 8,7 2,7 17 9 31 17 NNO 1026,3 42 0,0
16.10.2020 10:00:00 7,7 2,6 17 9 34 19 NNO 1026,2 40 0,0
16.10.2020 09:00:00 - - - - - - - - - -
16.10.2020 08:00:00 7,0 2,7 16 9 29 16 NNO 1025,3 50 0,0
16.10.2020 07:00:00 7,0 3,2 16 9 31 17 N 1025,3 50 0,0
16.10.2020 06:00:00 7,1 3,3 16 9 31 17 NNO 1025,0 50 0,0
16.10.2020 05:00:00 7,9 3,2 18 10 29 15 NNO 1025,1 50 0,0
16.10.2020 04:00:00 7,4 3,4 15 8 22 12 NO 1025,0 50 0,0
16.10.2020 03:00:00 6,7 6,0 11 6 17 9 NO 1024,9 50 0,0
16.10.2020 02:00:00 6,8 5,9 9 5 12 6 ONO 1024,7 50 0,0
16.10.2020 01:00:00 7,5 6,4 4 2 8 5 O 1024,4 50 0,0
16.10.2020 00:00:00 8,7 6,5 0 0 2 1 N 1024,2 50 0,0
15.10.2020 23:00:00 9,6 6,1 2 1 5 3 ZZW 1024,2 50 0,0
15.10.2020 22:00:00 10,6 4,3 0 0 3 1 N 1024,3 50 0,0
15.10.2020 21:00:00 10,8 3,8 3 1 8 4 N 1024,3 50 0,0
15.10.2020 20:00:00 10,4 3,2 5 3 14 7 N 1024,5 50 0,0
15.10.2020 19:00:00 10,0 3,3 9 5 21 12 N 1024,6 50 0,0
15.10.2020 18:00:00 10,3 3,1 10 5 20 11 N 1024,9 50 0,0
15.10.2020 17:00:00 10,7 3,0 13 7 23 12 N 1025,2 50 0,0
15.10.2020 16:00:00 10,7 2,9 12 7 28 15 N 1025,5 43 0,0
15.10.2020 15:00:00 10,5 2,8 15 8 23 13 N 1025,9 43 0,0
15.10.2020 14:00:00 9,9 2,7 14 7 24 13 N 1026,4 38 0,0
15.10.2020 13:00:00 9,1 2,9 16 9 28 15 NNO 1026,7 35 0,0
15.10.2020 12:00:00 8,2 2,2 16 9 36 20 NNO 1027,1 33 0,0
15.10.2020 11:00:00 7,3 2,0 26 14 39 21 NNO 1027,1 47 0,0
15.10.2020 10:00:00 6,5 2,2 20 11 40 22 NNO 1027,0 50 0,0
15.10.2020 09:00:00 5,8 1,5 26 14 46 25 NNO 1026,9 50 0,0
15.10.2020 08:00:00 5,4 1,3 29 16 43 23 NNO 1026,4 50 0,0
15.10.2020 07:00:00 5,4 1,4 25 13 49 26 NNO 1026,5 50 0,0
15.10.2020 06:00:00 5,3 0,9 25 14 39 21 N 1026,5 50 0,0
15.10.2020 05:00:00 5,5 1,2 25 13 38 21 N 1026,9 50 0,0
15.10.2020 04:00:00 5,4 0,9 22 12 42 23 N 1027,1 50 0,0
15.10.2020 03:00:00 6,0 0,3 27 14 41 22 NNO 1027,5 50 0,0
15.10.2020 02:00:00 5,7 1,2 26 14 48 26 NNO 1027,7 50 0,0
15.10.2020 01:00:00 6,1 1,7 26 14 37 20 NNO 1027,7 50 0,0
15.10.2020 00:00:00 6,1 2,2 25 14 36 19 NNO 1027,7 50 0,0
14.10.2020 23:00:00 6,2 2,3 19 10 33 18 N 1027,4 50 0,0
14.10.2020 22:00:00 7,1 1,6 22 12 41 22 NNO 1027,3 50 0,0
14.10.2020 21:00:00 7,6 1,4 22 12 39 21 NO 1027,2 50 0,0
14.10.2020 20:00:00 7,9 0,8 25 14 41 22 NO 1027,1 50 0,0
14.10.2020 19:00:00 8,0 0,9 20 11 36 19 NO 1026,9 50 0,0

tt = temperatuur
td = dauwpunt
ff = windsnelheid
fx = windstoten
dd = windrichting
ppp = luchtdruk
vv = zicht
rr = neerslag

Weerstations in de omgeving